ELECTRON KICK STAGE R/B, 62086

Orbit data source: Space-Track

ELECTRON KICK STAGE R/B, 62086 is space debris in SSO originally from a launch on Mon, 25 Nov 2024 UTC launched from the Rocket Lab Launch Complex (RLLC). Debris objects in space refer to the collection of defunct objects orbiting the Earth. Examples of debris include non-operational satellites, rocket bodies, and fragments generated from explosions, collisions, or faulty payload assembly.

Loading next visibility...
Identifier
62086, 2024-219F
Orbit
SSO
Country
Flag of USUS
Related business
Manufacturer
Rocket Lab
Mission
Spacecraft
Bus & Motor
KICK STAGE, CURIE
Mass
~50 kg wet, ~50 kg dry
Launch date (UTC)
2024-11-25 (9 months ago)
Launch vehicle
Unknown
Launch site
Rocket Lab Launch Complex (RLLC)
Object type
Payload
Rocket body
Debris
Shape & HBR
Cyl, Unknown HBR
Radar Cross Section
2.827 m², Medium (>0.1 m² and < 1m²)

Expand to show TLE details & history
Last TLE update: 19 hours ago

TLE from 19 hours ago
0 ELECTRON KICK STAGE R/B
1 62086U 24219F   25242.21065419  .00008080  00000-0  74742-3 0  9996
2 62086  97.9676  49.7745 0054469 197.6638 162.2689 14.93681954 41450
Epoch: 2025-08-30T05:03Z
TLE epoch observation values (Epoch: 2025-08-30T05:03:20.521Z)
Latitude
-0.00005°
Longitude
-4.70921°
Altitude
625.665 km
Speed
7.526 km/s
True Right ascension
03h 19m 05s
True Declination
0° 00' 00"
Sunlit
Object was in daylight at epoch
Visualization orbit readout
Latitude
Unknown
Longitude
Unknown
Altitude
Unknown
Speed
Unknown
Apparent Right ascension
Unknown
Apparent Declination
Unknown
Sunlit
N/A
Visualization observer readout
Local Sidereal Time
15:42:12
Azimuth
Unknown
Elevation
Unknown
Doppler factor
Unknown
Orbital elements
Apogee altitude
621.412 km
Perigee altitude
545.573 km
Semi-major axis
6,961.629 km
Eccentricity
0.00545
Inclination
97.9676°
RAAN
49.7745°
Arg. of periapsis
197.6638°
True anomaly
162.45777°
Mean anomaly
162.2689°
Eccentric anomaly
162.36345°
Mean motion
3.7366 °/min
Orbital period
96.34 mins
BSTAR
0.00074742
Loading maneuver chart data...
Computing Atmospheric mass density...
Loading historical data...
Loading historical data...
Loading historical data...
Loading historical data...
Loading historical data...
Loading historical data...
Loading historical data...

Documentation

Showing up to 5 results
|